Year,Month,Day,Hour,Minute,Value (Times are PST for temperature in C)
2018,08,14,00,00,18.10
2018,08,14,00,01,18.00
2018,08,14,00,02,18.00
2018,08,14,00,03,18.00
2018,08,14,00,04,18.00
2018,08,14,00,05,17.90
2018,08,14,00,06,17.90
2018,08,14,00,07,17.90
2018,08,14,00,08,17.90
2018,08,14,00,09,17.80
2018,08,14,00,10,17.80
2018,08,14,00,11,17.80
2018,08,14,00,12,17.80
2018,08,14,00,13,17.80
2018,08,14,00,14,17.70
2018,08,14,00,15,17.70
2018,08,14,00,16,17.70
2018,08,14,00,17,17.70
2018,08,14,00,18,17.60
2018,08,14,00,19,17.60
2018,08,14,00,20,17.60
2018,08,14,00,21,17.60
2018,08,14,00,22,17.50
2018,08,14,00,23,17.50
2018,08,14,00,24,17.40
2018,08,14,00,25,17.40
2018,08,14,00,26,17.40
2018,08,14,00,27,17.40
2018,08,14,00,28,17.30
2018,08,14,00,29,17.30
2018,08,14,00,30,17.30
2018,08,14,00,31,17.30
2018,08,14,00,32,17.30
2018,08,14,00,33,17.30
2018,08,14,00,34,17.30
2018,08,14,00,35,17.30
2018,08,14,00,36,17.20
2018,08,14,00,37,17.20
2018,08,14,00,38,17.20
2018,08,14,00,39,17.20
2018,08,14,00,40,17.20
2018,08,14,00,41,17.20
2018,08,14,00,42,17.20
2018,08,14,00,43,17.20
2018,08,14,00,44,17.20
2018,08,14,00,45,17.20
2018,08,14,00,46,17.20
2018,08,14,00,47,17.20
2018,08,14,00,48,17.20
2018,08,14,00,49,17.20
2018,08,14,00,50,17.20
2018,08,14,00,51,17.20
2018,08,14,00,52,17.20
2018,08,14,00,53,17.30
2018,08,14,00,54,17.30
2018,08,14,00,55,17.30
2018,08,14,00,56,17.30
2018,08,14,00,57,17.40
2018,08,14,00,58,17.40
2018,08,14,00,59,17.40
2018,08,14,01,00,17.40
2018,08,14,01,01,17.40
2018,08,14,01,02,17.40
2018,08,14,01,03,17.40
2018,08,14,01,04,17.40
2018,08,14,01,05,17.50
2018,08,14,01,06,17.40
2018,08,14,01,07,17.40
2018,08,14,01,08,17.40
2018,08,14,01,09,17.40
2018,08,14,01,10,17.40
2018,08,14,01,11,17.40
2018,08,14,01,12,17.40
2018,08,14,01,13,17.40
2018,08,14,01,14,17.40
2018,08,14,01,15,17.40
2018,08,14,01,16,17.40
2018,08,14,01,17,17.40
2018,08,14,01,18,17.40
2018,08,14,01,19,17.40
2018,08,14,01,20,17.40
2018,08,14,01,21,17.30
2018,08,14,01,22,17.30
2018,08,14,01,23,17.30
2018,08,14,01,24,17.30
2018,08,14,01,25,17.30
2018,08,14,01,26,17.30
2018,08,14,01,27,17.20
2018,08,14,01,28,17.20
2018,08,14,01,29,17.20
2018,08,14,01,30,17.20
2018,08,14,01,31,17.20
2018,08,14,01,32,17.10
2018,08,14,01,33,17.10
2018,08,14,01,34,17.10
2018,08,14,01,35,17.10
2018,08,14,01,36,17.10
2018,08,14,01,37,17.10
2018,08,14,01,38,17.10
2018,08,14,01,39,17.10
2018,08,14,01,40,17.10
2018,08,14,01,41,17.10
2018,08,14,01,42,17.00
2018,08,14,01,43,17.00
2018,08,14,01,44,17.00
2018,08,14,01,45,17.00
2018,08,14,01,46,17.00
2018,08,14,01,47,17.00
2018,08,14,01,48,17.00
2018,08,14,01,49,16.90
2018,08,14,01,50,17.00
2018,08,14,01,51,17.00
2018,08,14,01,52,17.00
2018,08,14,01,53,17.10
2018,08,14,01,54,17.10
2018,08,14,01,55,17.10
2018,08,14,01,56,17.10
2018,08,14,01,57,17.10
2018,08,14,01,58,17.10
2018,08,14,01,59,17.10
2018,08,14,02,00,17.10
2018,08,14,02,01,17.10
2018,08,14,02,02,17.10
2018,08,14,02,03,17.10
2018,08,14,02,04,17.10
2018,08,14,02,05,17.10
2018,08,14,02,06,17.10
2018,08,14,02,07,17.10
2018,08,14,02,08,17.10
2018,08,14,02,09,17.20
2018,08,14,02,10,17.20
2018,08,14,02,11,17.20
2018,08,14,02,12,17.20
2018,08,14,02,13,17.20
2018,08,14,02,14,17.20
2018,08,14,02,15,17.20
2018,08,14,02,16,17.20
2018,08,14,02,17,17.30
2018,08,14,02,18,17.30
2018,08,14,02,19,17.30
2018,08,14,02,20,17.30
2018,08,14,02,21,17.30
2018,08,14,02,22,17.30
2018,08,14,02,23,17.30
2018,08,14,02,24,17.30
2018,08,14,02,25,17.30
2018,08,14,02,26,17.30
2018,08,14,02,27,17.30
2018,08,14,02,28,17.30
2018,08,14,02,29,17.40
2018,08,14,02,30,17.40
2018,08,14,02,31,17.40
2018,08,14,02,32,17.40
2018,08,14,02,33,17.40
2018,08,14,02,34,17.40
2018,08,14,02,35,17.40
2018,08,14,02,36,17.30
2018,08,14,02,37,17.30
2018,08,14,02,38,17.30
2018,08,14,02,39,17.30
2018,08,14,02,40,17.30
2018,08,14,02,41,17.20
2018,08,14,02,42,17.20
2018,08,14,02,43,17.20
2018,08,14,02,44,17.20
2018,08,14,02,45,17.10
2018,08,14,02,46,17.10
2018,08,14,02,47,17.10
2018,08,14,02,48,17.10
2018,08,14,02,49,17.00
2018,08,14,02,50,17.00
2018,08,14,02,51,17.00
2018,08,14,02,52,16.90
2018,08,14,02,53,16.90
2018,08,14,02,54,16.90
2018,08,14,02,55,16.90
2018,08,14,02,56,16.90
2018,08,14,02,57,16.90
2018,08,14,02,58,16.90
2018,08,14,02,59,16.80
2018,08,14,03,00,16.80
2018,08,14,03,01,16.70
2018,08,14,03,02,16.70
2018,08,14,03,03,16.60
2018,08,14,03,04,16.60
2018,08,14,03,05,16.50
2018,08,14,03,06,16.40
2018,08,14,03,07,16.40
2018,08,14,03,08,16.30
2018,08,14,03,09,16.30
2018,08,14,03,10,16.30
2018,08,14,03,11,16.30
2018,08,14,03,12,16.30
2018,08,14,03,13,16.30
2018,08,14,03,14,16.30
2018,08,14,03,15,16.30
2018,08,14,03,16,16.30
2018,08,14,03,17,16.30
2018,08,14,03,18,16.30
2018,08,14,03,19,16.30
2018,08,14,03,20,16.30
2018,08,14,03,21,16.30
2018,08,14,03,22,16.30
2018,08,14,03,23,16.30
2018,08,14,03,24,16.30
2018,08,14,03,25,16.30
2018,08,14,03,26,16.30
2018,08,14,03,27,16.30
2018,08,14,03,28,16.30
2018,08,14,03,29,16.30
2018,08,14,03,30,16.20
2018,08,14,03,31,16.20
2018,08,14,03,32,16.20
2018,08,14,03,33,16.30
2018,08,14,03,34,16.30
2018,08,14,03,35,16.30
2018,08,14,03,36,16.30
2018,08,14,03,37,16.30
2018,08,14,03,38,16.30
2018,08,14,03,39,16.30
2018,08,14,03,40,16.40
2018,08,14,03,41,16.40
2018,08,14,03,42,16.40
2018,08,14,03,43,16.50
2018,08,14,03,44,16.50
2018,08,14,03,45,16.50
2018,08,14,03,46,16.50
2018,08,14,03,47,16.50
2018,08,14,03,48,16.50
2018,08,14,03,49,16.50
2018,08,14,03,50,16.50
2018,08,14,03,51,16.50
2018,08,14,03,52,16.50
2018,08,14,03,53,16.40
2018,08,14,03,54,16.40
2018,08,14,03,55,16.40
2018,08,14,03,56,16.40
2018,08,14,03,57,16.40
2018,08,14,03,58,16.40
2018,08,14,03,59,16.30
2018,08,14,04,00,16.30
2018,08,14,04,01,16.30
2018,08,14,04,02,16.30
2018,08,14,04,03,16.30
2018,08,14,04,04,16.30
2018,08,14,04,05,16.30
2018,08,14,04,06,16.30
2018,08,14,04,07,16.30
2018,08,14,04,08,16.30
2018,08,14,04,09,16.40
2018,08,14,04,10,16.40
2018,08,14,04,11,16.40
2018,08,14,04,12,16.40
2018,08,14,04,13,16.30
2018,08,14,04,14,16.30
2018,08,14,04,15,16.30
2018,08,14,04,16,16.30
2018,08,14,04,17,16.30
2018,08,14,04,18,16.30
2018,08,14,04,19,16.30
2018,08,14,04,20,16.30
2018,08,14,04,21,16.30
2018,08,14,04,22,16.30
2018,08,14,04,23,16.30
2018,08,14,04,24,16.30
2018,08,14,04,25,16.20
2018,08,14,04,26,16.20
2018,08,14,04,27,16.20
2018,08,14,04,28,16.10
2018,08,14,04,29,16.10
2018,08,14,04,30,16.10
2018,08,14,04,31,16.00
2018,08,14,04,32,16.00
2018,08,14,04,33,15.90
2018,08,14,04,34,15.90
2018,08,14,04,35,15.90
2018,08,14,04,36,15.80
2018,08,14,04,37,15.80
2018,08,14,04,38,15.80
2018,08,14,04,39,15.80
2018,08,14,04,40,15.70
2018,08,14,04,41,15.70
2018,08,14,04,42,15.70
2018,08,14,04,43,15.70
2018,08,14,04,44,15.60
2018,08,14,04,45,15.60
2018,08,14,04,46,15.60
2018,08,14,04,47,15.60
2018,08,14,04,48,15.50
2018,08,14,04,49,15.50
2018,08,14,04,50,15.40
2018,08,14,04,51,15.40
2018,08,14,04,52,15.40
2018,08,14,04,53,15.40
2018,08,14,04,54,15.40
2018,08,14,04,55,15.40
2018,08,14,04,56,15.30
2018,08,14,04,57,15.30
2018,08,14,04,58,15.30
2018,08,14,04,59,15.30
2018,08,14,05,00,15.20
2018,08,14,05,01,15.20
2018,08,14,05,02,15.20
2018,08,14,05,03,15.20
2018,08,14,05,04,15.10
2018,08,14,05,05,15.10
2018,08,14,05,06,15.10
2018,08,14,05,07,15.10
2018,08,14,05,08,15.00
2018,08,14,05,09,15.00
2018,08,14,05,10,15.00
2018,08,14,05,11,14.90
2018,08,14,05,12,14.90
2018,08,14,05,13,14.90
2018,08,14,05,14,14.90
2018,08,14,05,15,14.90
2018,08,14,05,16,14.90
2018,08,14,05,17,14.80
2018,08,14,05,18,14.80
2018,08,14,05,19,14.80
2018,08,14,05,20,14.80
2018,08,14,05,21,14.80
2018,08,14,05,22,14.80
2018,08,14,05,23,14.80
2018,08,14,05,24,14.70
2018,08,14,05,25,14.70
2018,08,14,05,26,14.70
2018,08,14,05,27,14.70
2018,08,14,05,28,14.70
2018,08,14,05,29,14.70
2018,08,14,05,30,14.60
2018,08,14,05,31,14.60
2018,08,14,05,32,14.60
2018,08,14,05,33,14.60
2018,08,14,05,34,14.60
2018,08,14,05,35,14.60
2018,08,14,05,36,14.60
2018,08,14,05,37,14.60
2018,08,14,05,38,14.50
2018,08,14,05,39,14.50
2018,08,14,05,40,14.50
2018,08,14,05,41,14.50
2018,08,14,05,42,14.50
2018,08,14,05,43,14.40
2018,08,14,05,44,14.40
2018,08,14,05,45,14.40
2018,08,14,05,46,14.40
2018,08,14,05,47,14.40
2018,08,14,05,48,14.40
2018,08,14,05,49,14.40
2018,08,14,05,50,14.40
2018,08,14,05,51,14.30
2018,08,14,05,52,14.30
2018,08,14,05,53,14.30
2018,08,14,05,54,14.30
2018,08,14,05,55,14.30
2018,08,14,05,56,14.30
2018,08,14,05,57,14.30
2018,08,14,05,58,14.30
2018,08,14,05,59,14.30
2018,08,14,06,00,14.30
2018,08,14,06,01,14.30
2018,08,14,06,02,14.30
2018,08,14,06,03,14.30
2018,08,14,06,04,14.30
2018,08,14,06,05,14.20
2018,08,14,06,06,14.20
2018,08,14,06,07,14.20
2018,08,14,06,08,14.20
2018,08,14,06,09,14.20
2018,08,14,06,10,14.20
2018,08,14,06,11,14.20
2018,08,14,06,12,14.10
2018,08,14,06,13,14.10
2018,08,14,06,14,14.10
2018,08,14,06,15,14.10
2018,08,14,06,16,14.10
2018,08,14,06,17,14.10
2018,08,14,06,18,14.10
2018,08,14,06,19,14.10
2018,08,14,06,20,14.10
2018,08,14,06,21,14.10
2018,08,14,06,22,14.10
2018,08,14,06,23,14.10
2018,08,14,06,24,14.10
2018,08,14,06,25,14.10
2018,08,14,06,26,14.10
2018,08,14,06,27,14.00
2018,08,14,06,28,14.00
2018,08,14,06,29,14.00
2018,08,14,06,30,14.00
2018,08,14,06,31,13.90
2018,08,14,06,32,13.90
2018,08,14,06,33,13.90
2018,08,14,06,34,13.90
2018,08,14,06,35,13.90
2018,08,14,06,36,13.90
2018,08,14,06,37,13.90
2018,08,14,06,38,13.80
2018,08,14,06,39,13.80
2018,08,14,06,40,13.80
2018,08,14,06,41,13.80
2018,08,14,06,42,13.80
2018,08,14,06,43,13.80
2018,08,14,06,44,13.80
2018,08,14,06,45,13.80
2018,08,14,06,46,13.80
2018,08,14,06,47,13.80
2018,08,14,06,48,13.80
2018,08,14,06,49,13.80
2018,08,14,06,50,13.80
2018,08,14,06,51,13.80
2018,08,14,06,52,13.90
2018,08,14,06,53,13.90
2018,08,14,06,54,13.90
2018,08,14,06,55,13.90
2018,08,14,06,56,13.90
2018,08,14,06,57,13.90
2018,08,14,06,58,13.90
2018,08,14,06,59,13.90
2018,08,14,07,00,13.90
2018,08,14,07,01,13.90
2018,08,14,07,02,13.90
2018,08,14,07,03,13.90
2018,08,14,07,04,14.00
2018,08,14,07,05,14.00
2018,08,14,07,06,14.00
2018,08,14,07,07,14.00
2018,08,14,07,08,14.00
2018,08,14,07,09,14.00
2018,08,14,07,10,14.00
2018,08,14,07,11,14.00
2018,08,14,07,12,14.00
2018,08,14,07,13,14.00
2018,08,14,07,14,14.00
2018,08,14,07,15,14.00
2018,08,14,07,16,14.00
2018,08,14,07,17,14.00
2018,08,14,07,18,14.00
2018,08,14,07,19,14.00
2018,08,14,07,20,14.10
2018,08,14,07,21,14.10
2018,08,14,07,22,14.10
2018,08,14,07,23,14.10
2018,08,14,07,24,14.10
2018,08,14,07,25,14.10
2018,08,14,07,26,14.10
2018,08,14,07,27,14.10
2018,08,14,07,28,14.10
2018,08,14,07,29,14.10
2018,08,14,07,30,14.10
2018,08,14,07,31,14.10
2018,08,14,07,32,14.10
2018,08,14,07,33,14.10
2018,08,14,07,34,14.10
2018,08,14,07,35,14.10
2018,08,14,07,36,14.10
2018,08,14,07,37,14.10
2018,08,14,07,38,14.10
2018,08,14,07,39,14.10
2018,08,14,07,40,14.20
2018,08,14,07,41,14.20
2018,08,14,07,42,14.20
2018,08,14,07,43,14.20
2018,08,14,07,44,14.30
2018,08,14,07,45,14.30
2018,08,14,07,46,14.30
2018,08,14,07,47,14.30
2018,08,14,07,48,14.40
2018,08,14,07,49,14.40
2018,08,14,07,50,14.40
2018,08,14,07,51,14.40
2018,08,14,07,52,14.40
2018,08,14,07,53,14.40
2018,08,14,07,54,14.50
2018,08,14,07,55,14.50
2018,08,14,07,56,14.50
2018,08,14,07,57,14.60
2018,08,14,07,58,14.60
2018,08,14,07,59,14.60
2018,08,14,08,00,14.60
2018,08,14,08,01,14.70
2018,08,14,08,02,14.70
2018,08,14,08,03,14.70
2018,08,14,08,04,14.70
2018,08,14,08,05,14.80
2018,08,14,08,06,14.80
2018,08,14,08,07,14.80
2018,08,14,08,08,14.90
2018,08,14,08,09,14.90
2018,08,14,08,10,14.90
2018,08,14,08,11,14.90
2018,08,14,08,12,15.00
2018,08,14,08,13,15.00
2018,08,14,08,14,15.10
2018,08,14,08,15,15.10
2018,08,14,08,16,15.20
2018,08,14,08,17,15.20
2018,08,14,08,18,15.30
2018,08,14,08,19,15.30
2018,08,14,08,20,15.30
2018,08,14,08,21,15.40
2018,08,14,08,22,15.40
2018,08,14,08,23,15.50
2018,08,14,08,24,15.50
2018,08,14,08,25,15.60
2018,08,14,08,26,15.60
2018,08,14,08,27,15.70
2018,08,14,08,28,15.80
2018,08,14,08,29,15.80
2018,08,14,08,30,15.90
2018,08,14,08,31,15.90
2018,08,14,08,32,16.00
2018,08,14,08,33,16.00
2018,08,14,08,34,16.10
2018,08,14,08,35,16.10
2018,08,14,08,36,16.20
2018,08,14,08,37,16.20
2018,08,14,08,38,16.30
2018,08,14,08,39,16.30
2018,08,14,08,40,16.30
2018,08,14,08,41,16.40
2018,08,14,08,42,16.40
2018,08,14,08,43,16.50
2018,08,14,08,44,16.60
2018,08,14,08,45,16.60
2018,08,14,08,46,16.70
2018,08,14,08,47,16.70
2018,08,14,08,48,16.80
2018,08,14,08,49,16.80
2018,08,14,08,50,16.90
2018,08,14,08,51,16.90
2018,08,14,08,52,17.00
2018,08,14,08,53,17.10
2018,08,14,08,54,17.10
2018,08,14,08,55,17.20
2018,08,14,08,56,17.20
2018,08,14,08,57,17.30
2018,08,14,08,58,17.40
2018,08,14,08,59,17.40
2018,08,14,09,00,17.50
2018,08,14,09,01,17.50
2018,08,14,09,02,17.60
2018,08,14,09,03,17.60
2018,08,14,09,04,17.70
2018,08,14,09,05,17.70
2018,08,14,09,06,17.80
2018,08,14,09,07,17.80
2018,08,14,09,08,17.80
2018,08,14,09,09,17.90
2018,08,14,09,10,17.90
2018,08,14,09,11,17.90
2018,08,14,09,12,18.00
2018,08,14,09,13,18.10
2018,08,14,09,14,18.10
2018,08,14,09,15,18.10
2018,08,14,09,16,18.20
2018,08,14,09,17,18.20
2018,08,14,09,18,18.20
2018,08,14,09,19,18.20
2018,08,14,09,20,18.20
2018,08,14,09,21,18.30
2018,08,14,09,22,18.30
2018,08,14,09,23,18.40
2018,08,14,09,24,18.50
2018,08,14,09,25,18.60
2018,08,14,09,26,18.60
2018,08,14,09,27,18.70
2018,08,14,09,28,18.70
2018,08,14,09,29,18.80
2018,08,14,09,30,18.80
2018,08,14,09,31,18.80
2018,08,14,09,32,18.90
2018,08,14,09,33,18.80
2018,08,14,09,34,18.90
2018,08,14,09,35,18.90
2018,08,14,09,36,18.90
2018,08,14,09,37,18.90
2018,08,14,09,38,18.90
2018,08,14,09,39,19.00
2018,08,14,09,40,19.00
2018,08,14,09,41,19.00
2018,08,14,09,42,19.00
2018,08,14,09,43,19.10
2018,08,14,09,44,19.10
2018,08,14,09,45,19.10
2018,08,14,09,46,19.20
2018,08,14,09,47,19.20
2018,08,14,09,48,19.20
2018,08,14,09,49,19.30
2018,08,14,09,50,19.40
2018,08,14,09,51,19.40
2018,08,14,09,52,19.50
2018,08,14,09,53,19.60
2018,08,14,09,54,19.60
2018,08,14,09,55,19.70
2018,08,14,09,56,19.70
2018,08,14,09,57,19.70
2018,08,14,09,58,19.70
2018,08,14,09,59,19.70
2018,08,14,10,00,19.60
2018,08,14,10,01,19.50
2018,08,14,10,02,19.40
2018,08,14,10,03,19.40
2018,08,14,10,04,19.30
2018,08,14,10,05,19.30
2018,08,14,10,06,19.20
2018,08,14,10,07,19.20
2018,08,14,10,08,19.10
2018,08,14,10,09,19.10
2018,08,14,10,10,19.00
2018,08,14,10,11,19.00
2018,08,14,10,12,18.90
2018,08,14,10,13,18.90
2018,08,14,10,14,18.90
2018,08,14,10,15,18.80
2018,08,14,10,16,18.80
2018,08,14,10,17,18.80
2018,08,14,10,18,18.90
2018,08,14,10,19,18.90
2018,08,14,10,20,18.90
2018,08,14,10,21,18.90
2018,08,14,10,22,18.90
2018,08,14,10,23,18.90
2018,08,14,10,24,18.90
2018,08,14,10,25,18.90
2018,08,14,10,26,18.80
2018,08,14,10,27,18.80
2018,08,14,10,28,18.80
2018,08,14,10,29,18.80
2018,08,14,10,30,18.80
2018,08,14,10,31,18.80
2018,08,14,10,32,18.80
2018,08,14,10,33,18.90
2018,08,14,10,34,18.90
2018,08,14,10,35,18.90
2018,08,14,10,36,19.00
2018,08,14,10,37,19.10
2018,08,14,10,38,19.10
2018,08,14,10,39,19.20
2018,08,14,10,40,19.30
2018,08,14,10,41,19.30
2018,08,14,10,42,19.40
2018,08,14,10,43,19.40
2018,08,14,10,44,19.40
2018,08,14,10,45,19.50
2018,08,14,10,46,19.60
2018,08,14,10,47,19.60
2018,08,14,10,48,19.70
2018,08,14,10,49,19.70
2018,08,14,10,50,19.80
2018,08,14,10,51,19.80
2018,08,14,10,52,19.90
2018,08,14,10,53,20.00
2018,08,14,10,54,20.00
2018,08,14,10,55,20.00
2018,08,14,10,56,20.10
2018,08,14,10,57,20.10
2018,08,14,10,58,20.10
2018,08,14,10,59,20.10
2018,08,14,11,00,20.10
2018,08,14,11,01,20.10
2018,08,14,11,02,20.10
2018,08,14,11,03,20.10
2018,08,14,11,04,20.20
2018,08,14,11,05,20.20
2018,08,14,11,06,20.30
2018,08,14,11,07,20.40
2018,08,14,11,08,20.50
2018,08,14,11,09,20.60
2018,08,14,11,10,20.70
2018,08,14,11,11,20.80
2018,08,14,11,12,20.90
2018,08,14,11,13,21.00
2018,08,14,11,14,21.10
2018,08,14,11,15,21.20
2018,08,14,11,16,21.20
2018,08,14,11,17,21.30
2018,08,14,11,18,21.30
2018,08,14,11,19,21.40
2018,08,14,11,20,21.40
2018,08,14,11,21,21.50
2018,08,14,11,22,21.60
2018,08,14,11,23,21.70
2018,08,14,11,24,21.70
2018,08,14,11,25,21.80
2018,08,14,11,26,21.80
2018,08,14,11,27,21.80
2018,08,14,11,28,21.80
2018,08,14,11,29,21.80
2018,08,14,11,30,21.70
2018,08,14,11,31,21.70
2018,08,14,11,32,21.70
2018,08,14,11,33,21.70
2018,08,14,11,34,21.80
2018,08,14,11,35,21.90
2018,08,14,11,36,21.90
2018,08,14,11,37,22.00
2018,08,14,11,38,22.00
2018,08,14,11,39,22.10
2018,08,14,11,40,22.20
2018,08,14,11,41,22.20
2018,08,14,11,42,22.20
2018,08,14,11,43,22.20
2018,08,14,11,44,22.20
2018,08,14,11,45,22.30
2018,08,14,11,46,22.30
2018,08,14,11,47,22.40
2018,08,14,11,48,22.50
2018,08,14,11,49,22.60
2018,08,14,11,50,22.70
2018,08,14,11,51,22.70
2018,08,14,11,52,22.80
2018,08,14,11,53,22.80
2018,08,14,11,54,22.90
2018,08,14,11,55,22.90
2018,08,14,11,56,23.00
2018,08,14,11,57,23.10
2018,08,14,11,58,23.00
2018,08,14,11,59,23.00
2018,08,14,12,00,23.00
2018,08,14,12,01,22.90
2018,08,14,12,02,22.80
2018,08,14,12,03,22.80
2018,08,14,12,04,22.80
2018,08,14,12,05,22.80
2018,08,14,12,06,22.70
2018,08,14,12,07,22.70
2018,08,14,12,08,22.80
2018,08,14,12,09,22.80
2018,08,14,12,10,22.80
2018,08,14,12,11,22.80
2018,08,14,12,12,22.80
2018,08,14,12,13,22.80
2018,08,14,12,14,22.80
2018,08,14,12,15,22.70
2018,08,14,12,16,22.70
2018,08,14,12,17,22.60
2018,08,14,12,18,22.50
2018,08,14,12,19,22.50
2018,08,14,12,20,22.40
2018,08,14,12,21,22.40
2018,08,14,12,22,22.40
2018,08,14,12,23,22.30
2018,08,14,12,24,22.30
2018,08,14,12,25,22.20
2018,08,14,12,26,22.20
2018,08,14,12,27,22.20
2018,08,14,12,28,22.20
2018,08,14,12,29,22.20
2018,08,14,12,30,22.20
2018,08,14,12,31,22.20
2018,08,14,12,32,22.20
2018,08,14,12,33,22.30
2018,08,14,12,34,22.30
2018,08,14,12,35,22.30
2018,08,14,12,36,22.40
2018,08,14,12,37,22.40
2018,08,14,12,38,22.40
2018,08,14,12,39,22.40
2018,08,14,12,40,22.40
2018,08,14,12,41,22.40
2018,08,14,12,42,22.40
2018,08,14,12,43,22.40
2018,08,14,12,44,22.40
2018,08,14,12,45,22.40
2018,08,14,12,46,22.40
2018,08,14,12,47,22.40
2018,08,14,12,48,22.40
2018,08,14,12,49,22.40
2018,08,14,12,50,22.40
2018,08,14,12,51,22.40
2018,08,14,12,52,22.40
2018,08,14,12,53,22.40
2018,08,14,12,54,22.50
2018,08,14,12,55,22.40
2018,08,14,12,56,22.40
2018,08,14,12,57,22.40
2018,08,14,12,58,22.40
2018,08,14,12,59,22.40
2018,08,14,13,00,22.40
2018,08,14,13,01,22.50
2018,08,14,13,02,22.50
2018,08,14,13,03,22.60
2018,08,14,13,04,22.60
2018,08,14,13,05,22.70
2018,08,14,13,06,22.70
2018,08,14,13,07,22.70
2018,08,14,13,08,22.70
2018,08,14,13,09,22.70
2018,08,14,13,10,22.80
2018,08,14,13,11,22.80
2018,08,14,13,12,22.80
2018,08,14,13,13,22.80
2018,08,14,13,14,22.90
2018,08,14,13,15,22.90
2018,08,14,13,16,22.90
2018,08,14,13,17,23.00
2018,08,14,13,18,23.00
2018,08,14,13,19,23.00
2018,08,14,13,20,23.10
2018,08,14,13,21,23.10
2018,08,14,13,22,23.10
2018,08,14,13,23,23.10
2018,08,14,13,24,23.20
2018,08,14,13,25,23.30
2018,08,14,13,26,23.30
2018,08,14,13,27,23.30
2018,08,14,13,28,23.40
2018,08,14,13,29,23.40
2018,08,14,13,30,23.40
2018,08,14,13,31,23.40
2018,08,14,13,32,23.50
2018,08,14,13,33,23.50
2018,08,14,13,34,23.50
2018,08,14,13,35,23.60
2018,08,14,13,36,23.60
2018,08,14,13,37,23.60
2018,08,14,13,38,23.60
2018,08,14,13,39,23.60
2018,08,14,13,40,23.60
2018,08,14,13,41,23.60
2018,08,14,13,42,23.60
2018,08,14,13,43,23.70
2018,08,14,13,44,23.70
2018,08,14,13,45,23.70
2018,08,14,13,46,23.80
2018,08,14,13,47,23.80
2018,08,14,13,48,23.80
2018,08,14,13,49,23.80
2018,08,14,13,50,23.90
2018,08,14,13,51,23.90
2018,08,14,13,52,23.90
2018,08,14,13,53,24.00
2018,08,14,13,54,24.00
2018,08,14,13,55,24.00
2018,08,14,13,56,24.10
2018,08,14,13,57,24.10
2018,08,14,13,58,24.10
2018,08,14,13,59,24.10
2018,08,14,14,00,24.10
2018,08,14,14,01,24.10
2018,08,14,14,02,24.20
2018,08,14,14,03,24.20
2018,08,14,14,04,24.20
2018,08,14,14,05,24.20
2018,08,14,14,06,24.20
2018,08,14,14,07,24.20
2018,08,14,14,08,24.20
2018,08,14,14,09,24.30
2018,08,14,14,10,24.30
2018,08,14,14,11,24.40
2018,08,14,14,12,24.40
2018,08,14,14,13,24.50
2018,08,14,14,14,24.50
2018,08,14,14,15,24.60
2018,08,14,14,16,24.60
2018,08,14,14,17,24.50
2018,08,14,14,18,24.50
2018,08,14,14,19,24.50
2018,08,14,14,20,24.50
2018,08,14,14,21,24.40
2018,08,14,14,22,24.50
2018,08,14,14,23,24.60
2018,08,14,14,24,24.70
2018,08,14,14,25,24.70
2018,08,14,14,26,24.70
2018,08,14,14,27,24.70
2018,08,14,14,28,24.70
2018,08,14,14,29,24.70
2018,08,14,14,30,24.70
2018,08,14,14,31,24.70
2018,08,14,14,32,24.60
2018,08,14,14,33,24.60
2018,08,14,14,34,24.60
2018,08,14,14,35,24.60
2018,08,14,14,36,24.60
2018,08,14,14,37,24.60
2018,08,14,14,38,24.70
2018,08,14,14,39,24.80
2018,08,14,14,40,24.80
2018,08,14,14,41,24.90
2018,08,14,14,42,24.90
2018,08,14,14,43,24.90
2018,08,14,14,44,24.90
2018,08,14,14,45,24.90
2018,08,14,14,46,24.90
2018,08,14,14,47,24.90
2018,08,14,14,48,25.00
2018,08,14,14,49,25.00
2018,08,14,14,50,25.10
2018,08,14,14,51,25.10
2018,08,14,14,52,25.00
2018,08,14,14,53,25.00
2018,08,14,14,54,25.00
2018,08,14,14,55,25.00
2018,08,14,14,56,25.00
2018,08,14,14,57,25.10
2018,08,14,14,58,25.20
2018,08,14,14,59,25.30
2018,08,14,15,00,25.40
2018,08,14,15,01,25.50
2018,08,14,15,02,25.60
2018,08,14,15,03,25.70
2018,08,14,15,04,25.80
2018,08,14,15,05,25.80
2018,08,14,15,06,25.90
2018,08,14,15,07,26.00
2018,08,14,15,08,26.00
2018,08,14,15,09,26.00
2018,08,14,15,10,25.90
2018,08,14,15,11,25.90
2018,08,14,15,12,25.80
2018,08,14,15,13,25.70
2018,08,14,15,14,25.70
2018,08,14,15,15,25.60
2018,08,14,15,16,25.60
2018,08,14,15,17,25.60
2018,08,14,15,18,25.60
2018,08,14,15,19,25.60
2018,08,14,15,20,25.60
2018,08,14,15,21,25.60
2018,08,14,15,22,25.60
2018,08,14,15,23,25.70
2018,08,14,15,24,25.70
2018,08,14,15,25,25.80
2018,08,14,15,26,25.80
2018,08,14,15,27,25.90
2018,08,14,15,28,25.90
2018,08,14,15,29,25.90
2018,08,14,15,30,26.00
2018,08,14,15,31,26.00
2018,08,14,15,32,26.10
2018,08,14,15,33,26.10
2018,08,14,15,34,26.10
2018,08,14,15,35,26.10
2018,08,14,15,36,26.20
2018,08,14,15,37,26.20
2018,08,14,15,38,26.20
2018,08,14,15,39,26.20
2018,08,14,15,40,26.20
2018,08,14,15,41,26.10
2018,08,14,15,42,26.10
2018,08,14,15,43,26.00
2018,08,14,15,44,26.00
2018,08,14,15,45,26.00
2018,08,14,15,46,26.10
2018,08,14,15,47,26.10
2018,08,14,15,48,26.20
2018,08,14,15,49,26.20
2018,08,14,15,50,26.30
2018,08,14,15,51,26.40
2018,08,14,15,52,26.40
2018,08,14,15,53,26.40
2018,08,14,15,54,26.40
2018,08,14,15,55,26.40
2018,08,14,15,56,26.50
2018,08,14,15,57,26.50
2018,08,14,15,58,26.50
2018,08,14,15,59,26.60
2018,08,14,16,00,26.70
2018,08,14,16,01,26.70
2018,08,14,16,02,26.80
2018,08,14,16,03,26.90
2018,08,14,16,04,26.90
2018,08,14,16,05,26.90
2018,08,14,16,06,27.00
2018,08,14,16,07,27.00
2018,08,14,16,08,26.90
2018,08,14,16,09,26.80
2018,08,14,16,10,26.80
2018,08,14,16,11,26.80
2018,08,14,16,12,26.80
2018,08,14,16,13,26.80
2018,08,14,16,14,26.90
2018,08,14,16,15,26.90
2018,08,14,16,16,26.90
2018,08,14,16,17,26.90
2018,08,14,16,18,26.90
2018,08,14,16,19,26.90
2018,08,14,16,20,26.90
2018,08,14,16,21,26.90
2018,08,14,16,22,26.90
2018,08,14,16,23,26.90
2018,08,14,16,24,26.80
2018,08,14,16,25,26.80
2018,08,14,16,26,26.80
2018,08,14,16,27,26.80
2018,08,14,16,28,26.80
2018,08,14,16,29,26.80
2018,08,14,16,30,26.80
2018,08,14,16,31,26.80
2018,08,14,16,32,26.80
2018,08,14,16,33,26.80
2018,08,14,16,34,26.80
2018,08,14,16,35,26.80
2018,08,14,16,36,26.80
2018,08,14,16,37,26.80
2018,08,14,16,38,26.80
2018,08,14,16,39,26.80
2018,08,14,16,40,26.80
2018,08,14,16,41,26.70
2018,08,14,16,42,26.70
2018,08,14,16,43,26.80
2018,08,14,16,44,26.80
2018,08,14,16,45,26.80
2018,08,14,16,46,26.80
2018,08,14,16,47,26.80
2018,08,14,16,48,26.80
2018,08,14,16,49,26.80
2018,08,14,16,50,26.80
2018,08,14,16,51,26.80
2018,08,14,16,52,26.80
2018,08,14,16,53,26.80
2018,08,14,16,54,26.80
2018,08,14,16,55,26.80
2018,08,14,16,56,26.80
2018,08,14,16,57,26.90
2018,08,14,16,58,26.90
2018,08,14,16,59,26.90
2018,08,14,17,00,26.90
2018,08,14,17,01,26.90
2018,08,14,17,02,26.90
2018,08,14,17,03,26.90
2018,08,14,17,04,26.90
2018,08,14,17,05,26.90
2018,08,14,17,06,26.90
2018,08,14,17,07,26.90
2018,08,14,17,08,26.90
2018,08,14,17,09,26.90
2018,08,14,17,10,26.90
2018,08,14,17,11,27.00
2018,08,14,17,12,27.00
2018,08,14,17,13,27.00
2018,08,14,17,14,27.00
2018,08,14,17,15,27.00
2018,08,14,17,16,26.90
2018,08,14,17,17,26.90
2018,08,14,17,18,26.90
2018,08,14,17,19,27.00